Weather History for Batna, Algeria

Change the Weather History Date:

Monday, February 18, 2013

  Actual Average Record
Temperature  
Mean Temperature 43 °F -  
Max Temperature 56 °F - - ()
Min Temperature 30 °F - - ()
Degree Days  
Heating Degree Days 22    
Moisture  
Dew Point 35 °F    
Average Humidity 67    
Maximum Humidity 87    
Minimum Humidity 34    
Precipitation  
Precipitation 0.00 in - - ()
Sea Level Pressure  
Sea Level Pressure 29.94 in    
Wind  
Wind Speed 8 mph ()    
Max Wind Speed 16 mph    
Max Gust Speed -    
Visibility 6.4 miles    
Events      
T = Trace of Precipitation, MM = Missing Value Source: Averaged Metar Reports

Daily Weather History Graph

Daily Weather History Graph

Search for Another Location

Airport:

Trip Planner

Search our weather history database for the weather conditions in past years. The results will help you decide how hot, cold, wet, or windy it might be!

Date:

Astronomy

Feb. 18, 2013 Rise Set
Actual Time 7:18 AM CET 6:19 PM CET
Civil Twilight 6:52 AM CET 6:45 PM CET
Nautical Twilight 6:22 AM CET 7:15 PM CET
Astronomical Twilight 5:52 AM CET 7:45 PM CET
Moon 11:59 AM CET (2/18) 1:38 AM CET (2/18)
Length of Visible Light 11h 53m
Length of Day
11h 01m
First Quarter, 56% of the Moon is Illuminated
Feb 18
First Quarter
Feb 25
Full
Mar 4
Last Quarter
Mar 11
New
Mar 19
First Quarter

Hourly Weather History & Observations

Time (CET) Temp. Windchill Dew Point Humidity Pressure Visibility Wind Dir Wind Speed Gust Speed Precip Events Conditions
12:00 AM 42.8 °F 37.5 °F 33.8 °F 70% 29.98 in 6.2 mi ESE 9.2 mph - N/A   Partly Cloudy
1:00 AM 37 °F - 29 °F 64%  in 6 mi ESE 6.9 mph - -   Clear
2:00 AM 35.6 °F 29.9 °F 28.4 °F 75% 29.95 in - East 6.9 mph - N/A   Clear
3:00 AM 35.6 °F 29.9 °F 30.2 °F 81% 29.95 in - SSW 6.9 mph - N/A   Clear
4:00 AM 32 °F - 27 °F 74%  in 6 mi NNW 6.9 mph - -   Clear
4:00 AM 32.0 °F 25.6 °F 26.6 °F 80% 29.95 in - NNW 6.9 mph - N/A   Clear
5:00 AM 32.0 °F 27.5 °F 26.6 °F 80% 29.95 in - North 4.6 mph - N/A   Clear
6:00 AM 30.2 °F 23.4 °F 26.6 °F 86% 29.95 in - NNW 6.9 mph - N/A   Clear
7:00 AM 33 °F - 29 °F 77%  in 6 mi West 6.9 mph - -   Partly Cloudy
7:00 AM 32.0 °F 25.6 °F 28.4 °F 87% 29.92 in - West 6.9 mph - N/A   Clear
8:00 AM 35.6 °F 29.9 °F 30.2 °F 81% 29.92 in 6.2 mi North 6.9 mph - N/A   Mostly Cloudy
9:00 AM 41.0 °F 35.2 °F 33.8 °F 76% 29.95 in 6.2 mi WSW 9.2 mph - N/A   Mostly Cloudy
10:00 AM 47 °F - 37 °F 60%  in 9 mi WNW 9.2 mph - -   Partly Cloudy
10:00 AM 46.4 °F 41.9 °F 37.4 °F 71% 29.95 in 6.2 mi WNW 9.2 mph - N/A   Mostly Cloudy
11:00 AM 48.2 °F - 37.4 °F 66% 29.95 in 6.2 mi NE 9.2 mph - N/A   Mostly Cloudy
12:00 PM 53.6 °F - 39.2 °F 58% 29.92 in 6.2 mi NNW 13.8 mph - N/A   Scattered Clouds
1:00 PM 55 °F - 36 °F 36%  in 9 mi WNW 13.8 mph - -   Mostly Cloudy
1:00 PM 55.4 °F - 35.6 °F 47% 29.92 in 6.2 mi WNW 13.8 mph - N/A   Mostly Cloudy
2:00 PM 55.4 °F - 37.4 °F 51% 29.92 in 6.2 mi NW 16.1 mph - N/A   Mostly Cloudy
3:00 PM 53.6 °F - 39.2 °F 58% 29.92 in 6.2 mi WNW 13.8 mph - N/A   Mostly Cloudy
4:00 PM 56 °F - 36 °F 34%  in 6 mi WNW 11.5 mph - -   Mostly Cloudy
4:00 PM 55.4 °F - 35.6 °F 47% 29.92 in 6.2 mi WNW 11.5 mph - N/A   Mostly Cloudy
5:00 PM 55.4 °F - 35.6 °F 47% 29.92 in 6.2 mi NNW 11.5 mph - N/A   Mostly Cloudy
6:00 PM 53.6 °F - 39.2 °F 58% 29.92 in 6.2 mi NNW 13.8 mph - N/A   Mostly Cloudy
7:00 PM 51 °F - 40 °F 57%  in 6 mi NW 9.2 mph - -   Mostly Cloudy
7:00 PM 51.8 °F - 41.0 °F 67% 29.95 in 6.2 mi NW 9.2 mph - N/A   Mostly Cloudy
8:00 PM 50.0 °F - 39.2 °F 66% 29.95 in 6.2 mi North 6.9 mph - N/A   Mostly Cloudy
9:00 PM 48.2 °F - 39.2 °F 71% 29.98 in 6.2 mi NW 9.2 mph - N/A   Scattered Clouds
10:00 PM 44 °F - 39 °F 76%  in 6 mi SSW 4.6 mph - -   Partly Cloudy
10:00 PM 44.6 °F 42.2 °F 39.2 °F 81% 29.98 in 6.2 mi SSW 4.6 mph - N/A   Scattered Clouds
11:00 PM 42.8 °F 38.6 °F 37.4 °F 81% 29.98 in 6.2 mi ESE 6.9 mph - N/A   Partly Cloudy